Regional Weather Roundup
Issued by NWS Kansas City/Pleasant Hill, MO

Home | Current Version | Previous Version | Graphics & Text | Print | Product List | Glossary Off
Versions: 1 2 3 4 5 6 7 8 9 10 11 12 13 14 15 16 17 18 19 20 21 22 23 24 25 26 27 28 29 30 31 32 33 34 35 36 37 38 39 40 41 42 43 44 45 46 47 48 49 50

000
ASUS43 KEAX 262010
RWREAX

WEATHER ROUNDUP FOR EASTERN KANSAS AND NORTHWEST MISSOURI
NATIONAL WEATHER SERVICE KANSAS CITY/PLEASANT HILL MO
300 PM CDT FRI MAY 26 2017

KSZ040-057-103>105-MOZ028-029-037-043-262100-
...KANSAS CITY METROPOLITAN AREA...

CITY           SKY/WX    TMP DP  RH WIND       PRES   REMARKS
K.C. INTL      PTSUNNY   81  65  58 N8        29.76R
K.C. DOWNTOWN  MOSUNNY   84  65  52 N6        29.74S
LEES SUMMIT    MOSUNNY   83  67  58 NE3       29.76R
OLATHE - IXD   MOSUNNY   81  64  56 NE5       29.77R
OLATHE - OJC   MOSUNNY   81  64  56 N6        29.76S
LAWRENCE       PTSUNNY   85  66  53 N8        29.76R

$$

MOZ001>008-011>017-020>025-030>033-038>040-044>046-053-054-262100-
...NORTHERN AND CENTRAL MISSOURI...

CITY           SKY/WX    TMP DP  RH WIND       PRES   REMARKS
ST. JOSEPH     PTSUNNY   83  64  52 NE8       29.75S
MOSBY          MOCLDY    82  63  51 N7        29.75R
WARRENSBURG    CLOUDY    79  64  61 CALM      29.75R
WHITEMAN AFB   SUNNY     80  67  63 W3        29.74S
CLINTON        PTSUNNY   81  66  61 S3        29.76S
SEDALIA        CLOUDY    80  68  66 CALM      29.76S
WARSAW         NOT AVBL
CHILLICOTHE      N/A     82  65  56 N6        29.75R
KIRKSVILLE     PTSUNNY   81  66  60 N9        29.75R

$$

MOZ041-047>049-056>058-063>065-088>090-097-262100-
...EASTERN AND SOUTHERN MISSOURI...

CITY           SKY/WX    TMP DP  RH WIND       PRES   REMARKS
ST. LOUIS INTL CLOUDY    83  64  52 S10       29.74R
SPIRIT OF STL  CLOUDY    82  67  60 SW7       29.72S
COLUMBIA       CLOUDY    77  67  71 W6        29.75S
JEFFERSON CITY CLOUDY    80  66  62 W7        29.73S
ROLLA          CLOUDY    77  70  79 W6        29.76R
OSAGE BEACH    CLOUDY    78  68  71 W6        29.77R
SPRINGFIELD    CLOUDY    78  67  68 SW7       29.76F
BRANSON        CLOUDY    79  66  65 S5        29.79S
JOPLIN         CLOUDY    83  69  62 CALM      29.76S
WEST PLAINS    CLOUDY    74  66  76 S8        29.81S

$$

IAZ060-094-KSZ022-034>040-054-083-096-NEZ052-066-093-262100-
...KANSAS...SOUTHEAST NEBRASKA AND IOWA...

CITY           SKY/WX    TMP DP  RH WIND       PRES   REMARKS
TOPEKA         MOSUNNY   84  66  54 N6        29.76S
MANHATTAN      MOSUNNY   83  64  52 N6        29.78S
EMPORIA        MOSUNNY   82  64  54 N7        29.78R
CHANUTE        MOSUNNY   86  65  49 NE6       29.76S
WICHITA        MOSUNNY   85  58  39 N10       29.78S
OMAHA          MOSUNNY   79  53  40 NW16G24   29.79S
LINCOLN        SUNNY     80  52  37 N13       29.82F
FALLS CITY     PTSUNNY   84  62  47 MISG      29.76S
LAMONI         SUNNY     80  62  54 N8        29.76S
DES MOINES     MOSUNNY   80  57  45 N3        29.75F

$$




USA.gov is the U.S. government's official web portal to all federal, state and local government web resources and services.